Orbital Elements at Epoch 2459200.5 (2020-Dec-17.0) TDB
Reference: JPL 20 (heliocentric ecliptic J2000)
Element | Value | Uncertainty (1-sigma) | Units |
e | .1992675324024493 | 6.2747e-08 | |
a | 3.084545098306674 | 2.3724e-08 | au |
q | 2.469895407983033 | 2.0505e-07 | au |
i | 13.01113292544929 | 4.6458e-06 | deg |
node | 186.7999354816995 | 1.7058e-05 | deg |
peri | 175.0888431126211 | 2.2896e-05 | deg |
M | 346.3784634702124 | 1.1715e-05 | deg |
tp | 2459275.370151514105 (2021-Mar-01.87015151) | 6.4632e-05 | TDB |
period | 1978.723507890337 5.42 | 2.2829e-05 6.25e-08 | d yr |
n | .1819354743421543 | 2.099e-09 | deg/d |
Q | 3.699194788630316 | 2.8452e-08 | au |
|
| | Orbit Determination Parameters
Additional Information
|